Content
SEND FEEDBACK

Daily
Averages
Monthly
Summary
United States of America

ROCK HILL, NEW YORK


Home > North America > United States > New York
Elevation: 384 meters     Latitude: 41 35N     Longitude: 074 37W

WEATHER
 
SELECT A DAY
Number of Records: 443,503;   Date Range: 1/1/95 - 7/29/14
 
SHARE

PRINT THIS DATA

[ ← Previous Day ]
WEATHER ALMANAC - 22 DECEMBER, 2013
[ Next Day → ]
[ °F ]   °C
Weather ElementAverageHighLow
Temperature12.8 °C15 °C (2:55 pm)9 °C (12:35 am)
Dewpoint9.9 °C12 °C (7:35 am)7 °C (12:35 am)
Humidity83.1 %93 % (1:35 am)77 % (2:55 pm)
Barometer1011.2 hPa1014.6 hPa (9:55 pm)1007.8 hPa (5:15 am)
Wind Speed11.7 km/h25.9 km/h (6:35 am)
Wind Gust42.6 km/h (6:35 am)
Weather ElementAverage
Visibility12.4 km
Wind DirectionSSW (193.9 °)

Weather ElementTotal
Precipitation2.79 mm
Heating Degree Days6.3 (Base 18.3)
Growing Degree Days2 (Base 10)
Averaged from 71 records on 22 December, 2013
WEATHER CONDITIONS BREAKOUT
WIND DIRECTION BREAKOUT
WEATHER BY HOUR - 22 DECEMBER, 2013
[ °F ]   °C
Local TimeTemperatureDewpointHumidityBarometerVisibilityWind DirectionWind SpeedGust SpeedPrecipitationEventsConditions
12:35 AM9 °C7 °C87 %1011.5 hPa12.9 kmSSW (200°)9.3 km/hMostly Cloudy
12:55 AM9 °C7 °C87 %1011.5 hPa12.9 kmSouth (190°)9.3 km/hMostly Cloudy
1:15 AM9 °C7 °C87 %1010.5 hPa8 kmSouth (170°)7.4 km/hMostly Cloudy
1:35 AM9 °C8 °C93 %1011.5 hPa8 kmSSW (200°)9.3 km/hOvercast
1:55 AM10 °C7 °C82 %1010.2 hPa8 kmSSE (160°)13 km/hMostly Cloudy
2:15 AM9 °C7 °C87 %1010.2 hPa0.8 kmSouth (170°)7.4 km/hOvercast
2:35 AM11 °C8 °C82 %1010.2 hPa6.4 kmSSW (210°)13 km/hOvercast
2:55 AM11 °C8 °C82 %1009.8 hPa6.4 kmSSW (200°)9.3 km/hOvercast
3:15 AM11 °C9 °C88 %1010.2 hPa8 kmSSW (210°)14.8 km/hOvercast
3:35 AM11 °C9 °C88 %1009.1 hPa8 kmSouth (190°)16.7 km/h25.9 km/hOvercast
3:55 AM11 °C9 °C88 %1009.1 hPa4.8 kmSSW (210°)16.7 km/hOvercast
4:15 AM12 °C9 °C82 %1008.8 hPa4.8 kmSSW (200°)14.8 km/h0.25 mmOvercast
4:35 AM12 °C9 °C82 %1008.5 hPa2.4 kmSouth (190°)14.8 km/h0.25 mmOvercast
4:55 AM12 °C10 °C88 %1008.5 hPa3.2 kmSW (220°)20.4 km/h31.5 km/h0.25 mmOvercast
5:15 AM13 °C11 °C88 %1007.8 hPa4 kmSSW (210°)18.5 km/h33.3 km/hOvercast
5:35 AM13 °C11 °C88 %1008.1 hPa4.8 kmSSW (210°)20.4 km/h31.5 km/hOvercast
5:55 AM13 °C11 °C88 %1008.5 hPa8 kmSSW (210°)20.4 km/h40.7 km/hOvercast
6:15 AM13 °C11 °C88 %1008.5 hPa8 kmSSW (210°)22.2 km/h40.7 km/hOvercast
6:35 AM13 °C11 °C88 %1009.1 hPa11.3 kmSSW (210°)25.9 km/h42.6 km/hOvercast
6:55 AM14 °C11 °C82 %1009.5 hPa14.5 kmSSW (210°)22.2 km/h35.2 km/hOvercast
7:15 AM14 °C11 °C82 %1009.5 hPa6.4 kmSSW (210°)16.7 km/h27.8 km/h0.25 mmOvercast
7:35 AM14 °C12 °C88 %1009.1 hPa4.8 kmSouth (190°)20.4 km/h27.8 km/h0.51 mmOvercast
7:55 AM14 °C12 °C88 %1009.1 hPa4 kmSSW (210°)11.1 km/h0.51 mmOvercast
8:15 AM13 °C11 °C88 %1009.5 hPa3.2 kmSW (220°)14.8 km/hOvercast
8:35 AM14 °C12 °C88 %1010.5 hPa3.2 kmSW (230°)13 km/hOvercast
8:55 AM14 °C12 °C88 %1010.5 hPa4.8 kmWSW (240°)11.1 km/hOvercast
9:15 AM14 °C12 °C88 %1010.8 hPa8 kmSW (230°)11.1 km/hMostly Cloudy
9:35 AM14 °C12 °C88 %1011.5 hPa11.3 kmSW (230°)13 km/hMostly Cloudy
9:55 AM14 °C12 °C88 %1011.9 hPa16.1 kmWSW (250°)14.8 km/hMostly Cloudy
10:15 AM14 °C12 °C88 %1012.9 hPa16.1 kmWest (260°)16.7 km/h0.25 mmScattered Clouds
10:35 AM14 °C12 °C88 %1012.9 hPa16.1 kmWest (270°)14.8 km/h31.5 km/h0.25 mmScattered Clouds
10:55 AM14 °C11 °C82 %1012.5 hPa16.1 kmWest (260°)9.3 km/h0.25 mmOvercast
11:15 AM14 °C11 °C82 %1012.2 hPa16.1 kmSW (220°)7.4 km/hOvercast
11:35 AM14 °C11 °C82 %1012.2 hPa16.1 kmSW (230°)5.6 km/hScattered Clouds
11:55 AM14 °C11 °C82 %1011.2 hPa16.1 kmSSE (150°)11.1 km/hMostly Cloudy
12:15 PM14 °C11 °C82 %1011.2 hPa16.1 kmSouth (180°)14.8 km/hScattered Clouds
12:35 PM14 °C11 °C82 %1010.5 hPa16.1 kmSouth (170°)16.7 km/hScattered Clouds
12:55 PM14 °C11 °C82 %1010.2 hPa16.1 kmSouth (180°)14.8 km/hMostly Cloudy
1:15 PM14 °C11 °C82 %1009.5 hPa16.1 kmSouth (170°)20.4 km/hScattered Clouds
1:35 PM14 °C11 °C82 %1008.8 hPa16.1 kmSouth (180°)14.8 km/hScattered Clouds
1:55 PM14 °C11 °C82 %1008.5 hPa16.1 kmSW (220°)7.4 km/hScattered Clouds
2:15 PM14 °C11 °C82 %1007.8 hPa16.1 kmWSW (240°)9.3 km/h27.8 km/hClear
2:35 PM14 °C11 °C82 %1010.2 hPa16.1 kmWSW (240°)14.8 km/h25.9 km/hPartly Cloudy
2:55 PM15 °C11 °C77 %1010.2 hPa16.1 kmSSW (210°)20.4 km/h29.6 km/hClear
3:15 PM15 °C11 °C77 %1010.2 hPa16.1 kmSW (230°)11.1 km/hClear
3:35 PM15 °C11 °C77 %1010.8 hPa16.1 kmSSW (210°)9.3 km/hClear
3:55 PM14 °C11 °C82 %1011.5 hPa16.1 kmSW (220°)9.3 km/hClear
4:15 PM14 °C11 °C82 %1011.5 hPa16.1 kmSSW (200°)5.6 km/hClear
4:35 PM14 °C10 °C77 %1011.9 hPa16.1 kmCalmClear
4:55 PM13 °C9 °C77 %1011.9 hPa16.1 kmSouth (190°)7.4 km/hClear
5:15 PM13 °C10 °C82 %1012.2 hPa16.1 kmSSW (200°)9.3 km/hPartly Cloudy
5:35 PM13 °C10 °C82 %1011.9 hPa16.1 kmSouth (190°)7.4 km/hClear
5:55 PM13 °C9 °C77 %1012.2 hPa16.1 kmSouth (180°)7.4 km/hPartly Cloudy
6:15 PM13 °C9 °C77 %1012.9 hPa16.1 kmCalmScattered Clouds
6:35 PM13 °C9 °C77 %1012.5 hPa16.1 kmCalmMostly Cloudy
6:55 PM13 °C9 °C77 %1013.2 hPa16.1 kmSSW (210°)9.3 km/hMostly Cloudy
7:15 PM13 °C9 °C77 %1013.2 hPa16.1 kmSSW (200°)13 km/hPartly Cloudy
7:35 PM13 °C9 °C77 %1012.9 hPa16.1 kmSSW (200°)11.1 km/hClear
7:55 PM13 °C9 °C77 %1013.2 hPa16.1 kmCalmClear
8:15 PM13 °C9 °C77 %1013.5 hPa16.1 kmSouth (190°)7.4 km/hClear
8:35 PM12 °C9 °C82 %1013.5 hPa16.1 kmSouth (190°)7.4 km/hClear
8:55 PM12 °C9 °C82 %1013.9 hPa16.1 kmSouth (180°)9.3 km/hMostly Cloudy
9:15 PM12 °C9 °C82 %1013.9 hPa16.1 kmSouth (190°)11.1 km/hMostly Cloudy
9:35 PM12 °C9 °C82 %1013.9 hPa16.1 kmSW (220°)5.6 km/hScattered Clouds
9:55 PM12 °C9 °C82 %1014.6 hPa16.1 kmSSW (200°)9.3 km/hClear
10:15 PM12 °C9 °C82 %1014.6 hPa16.1 kmSSW (200°)11.1 km/hClear
10:35 PM12 °C9 °C82 %1014.6 hPa16.1 kmSSW (200°)13 km/hClear
10:55 PM12 °C9 °C82 %1014.6 hPa16.1 kmSSW (200°)9.3 km/hClear
11:15 PM12 °C9 °C82 %1014.2 hPa16.1 kmSouth (190°)7.4 km/hClear
11:35 PM12 °C9 °C82 %1013.9 hPa16.1 kmSSW (200°)5.6 km/hClear
11:55 PM12 °C9 °C82 %1013.5 hPa16.1 kmSSW (210°)7.4 km/hClear
Hourly data recorded from KMSV, located 0 kilometers away from Rock Hill, New York







STORIES FROM OUR PARTNERS